Regional Weather Roundup
Issued by NWS Jackson, KY

Home | Current Version | Previous Version | Graphics & Text | Print | Product List | Glossary On
Versions: 1 2 3 4 5 6 7 8 9 10 11 12 13 14 15 16 17 18 19 20 21 22 23 24 25 26 27 28 29 30 31 32 33 34 35 36 37 38 39 40 41 42 43 44 45 46 47 48 49 50
000
ASUS43 KJKL 271610
RWRJKL

EAST KENTUCKY HOURLY WEATHER ROUNDUP
NATIONAL WEATHER SERVICE JACKSON KY
1200 PM EDT WED MAY 27 2015

NOTE: "FAIR" INDICATES FEW OR NO CLOUDS BELOW 12,000 FEET WITH
NO SIGNIFICANT WEATHER AND/OR OBSTRUCTIONS TO VISIBILITY.

* THESE REPORTS ARE NOT UNDER NWS QUALITY CONTROL AND MAY NOT
  REPORT WEATHER SUCH AS PRECIPITATION AND FOG.

KYZ079-080-083-085-087-088-110-112-115-119-120-271700
...EASTERN KENTUCKY...

CITY           SKY/WX    TMP DP  RH WIND       PRES   REMARKS
JACKSON        CLOUDY    72  65  78 CALM      30.23F
LONDON         PTSUNNY   74  62  66 S10       30.24R
SOMERSET*      PTSUNNY   72  63  73 SW7       30.23S
MONTICELLO*    PTSUNNY   76  67  73 SW3       30.25R
MIDDLESBORO*   CLOUDY    74  63  69 CALM      30.25S
HARLAN APT*    PTSUNNY   73  61  64 MISG      30.25S
HAZARD APT*    CLOUDY    75  64  69 SW10      30.24S
BLACK MTN*       N/A     64  59  82 SW1         N/A
PIKEVILLE APT* PTSUNNY   75  64  69 W5        30.23F
BIG SANDY*     CLOUDY    75  65  71 W6        30.22F
MOREHEAD APT*  PTSUNNY   77  66  69 SW13      30.21S
$$

KYZ035-036-041-042-044-050-067-078-099-271700
...CENTRAL KENTUCKY...

CITY           SKY/WX    TMP DP  RH WIND       PRES   REMARKS
MT STERLING*   PTSUNNY   73  68  83 W9        30.20S
FLEMING/MASON* CLOUDY    75  64  69 SW13      30.18S
DANVILLE*      CLOUDY    73  64  73 W7        30.20F
RICHMOND*      PTSUNNY   75  64  69 SW10      30.20S
LEXINGTON      MOSUNNY   77  67  71 SW12G20   30.17F
FRANKFORT      PTSUNNY   76  65  68 SW12      30.15S
$$

KYZ091>093-OHZ055-061-077-WVZ005-015-034-035-042-271700
...SOUTHERN OHIO/WEST VIRGINIA...

CITY           SKY/WX    TMP DP  RH WIND       PRES   REMARKS
COVINGTON      PTSUNNY   75  63  66 SW10      30.14R
COLUMBUS       PTSUNNY   76  63  64 SW13G21   30.12R
DAYTON         PTSUNNY   77  64  64 SW14      30.11F
WILMINGTON     MOSUNNY   77  62  59 SW13      30.13S
HUNTINGTON     PTSUNNY   77  66  68 SW12      30.18F
CHARLESTON     PTSUNNY   76  65  68 VRB7      30.19F
PINEVILLE*     PTSUNNY   78  64  63 MISG      30.29F
BECKLEY        MOSUNNY   75  57  53 W7        30.27F
BLUEFIELD      MOSUNNY   77  57  50 W9        30.30S
$$

VAZ002-007-008-TNZ017-027-036-066-071-271700
...SOUTHWEST VIRGINIA/EAST TENNESSEE...

CITY           SKY/WX    TMP DP  RH WIND       PRES   REMARKS
WISE*          PTSUNNY   72  55  56 SW10      30.31S
JONESVILLE*    PTSUNNY   75  61  60 W8        30.28S
ABINGDON*      PTSUNNY   74  63  69 CALM      30.28S
BRISTOL        PTSUNNY   76  59  55 W3        30.26S
KNOXVILLE      PTSUNNY   77  59  53 SW12      30.24
OAK RIDGE      CLOUDY    76  63  64 VRB6      30.26R
CROSSVILLE     PTSUNNY   74  62  66 SW6       30.27R
NASHVILLE      PTSUNNY   80  69  69 SW7       30.19S
$$

...KEY TO REMARKS...
VSB - VISIBILITY IN MILES
WCI - WIND CHILL INDEX
HX  - HEAT INDEX

$$


USA.gov is the U.S. government's official web portal to all federal, state and local government web resources and services.